DAOODAON

Guest
Details From DAOO - ES SENIA
To DAON - ZENATA
Flight Number -
Tags generated
Created
Modified
Stats Distance 55 nm / 102 km
Max Altitude 6,800 ft / 2,073 m
Waypoints 3
Social Downloads 11
Likes 0
Share VATSIM

Download

Looking for another format? Having issues loading an existing format? Contact us
Advertisement - Login to hide

Notes

Basic altitude profile: - Ascent Rate: 2500ft/min - Ascent Speed: 250kts - Cruise Altitude: 35000ft - Cruise Speed: 420kts - Descent Rate: 1500ft/min - Descent Speed: 250kts Options: - Use NATs: yes - Use PACOTS: yes - Use low airways: yes - Use high airways: yes

Route

DAOO HMB DAON

ID Type Via Altitude Latitude Longitude Leg Dist Tot Dist Heading (true) Name
O DAOO APT - 0 ft / 0 m 35.62386˚ -0.62118˚ - 0 nm - ES SENIA
HMB NDB - 6,800 ft / 2,073 m 35.36306˚ -0.96889˚ 23 nm 23 nm 227° / 227° HAMMAM BOU HADJAR NDB
O DAON APT - 0 ft / 0 m 35.01335˚ -1.45720˚ 31 nm 54 nm 229° / 229° ZENATA

Altitude Profile

Advertisement - Login to hide

DAOO

Details ICAO DAOO (ORN)
Name ES SENIA
Region Algeria
Timezone Africa/Algiers (UTC+1.0)
Stats Elevation 295 ft / 90 m (AMSL)
Location 35.623858° -0.621183°
Runways 1
Magnetic Variation 0.198° E

METAR

DAOO 230700Z 06010KT 9999 FEW020 20/11 Q1014

Decode

TAF

TAF DAOO 230500Z 2306/2406 VRB02KT 9999 FEW016 BECMG 2310/2312 04012KT FEW026 TEMPO 2312/2318 06018KT BECMG 2321/2323 22010KT

Decode

Departure Runways

ID Width Length Bearing (true) Bearing (mag) Surface Threshold Offset Overrun Length
07 148 ft / 45 m 10,006 ft / 3,050 m 67.06° 66.86° Asphalt 0 ft / 0 m 328 ft / 100 m
25 148 ft / 45 m 10,006 ft / 3,050 m 247.08° 246.88° Asphalt 196 ft / 60 m 0 ft / 0 m

DAON

Details ICAO DAON (TLM)
Name ZENATA
Region Algeria
Timezone Africa/Algiers (UTC+1.0)
Stats Elevation 814 ft / 248 m (AMSL)
Location 35.013350° -1.457202°
Runways 1
Magnetic Variation 0.021° W

METAR

DAON 230700Z 00000KT 9999 FEW030 SCT100 19/12 Q1015

Decode

TAF

TAF DAON 230500Z 2306/2406 VRB02KT 9999 SCT026 PROB30 TEMPO 2306/2308 3000 BR SCT010 BECMG 2310/2312 36010KT TEMPO 2312/2318 36016KT BECMG 2321/2323 VRB02KT

Decode

Destination Runways

ID Width Length Bearing (true) Bearing (mag) Surface Threshold Offset Overrun Length
07 148 ft / 45 m 8,521 ft / 2,597 m 69.94° 69.96° Asphalt 0 ft / 0 m 0 ft / 0 m
25 148 ft / 45 m 8,521 ft / 2,597 m 249.96° 249.98° Asphalt 0 ft / 0 m 0 ft / 0 m

Popular Alternatives